EW6095 Weather Reports


Display with metric or nautical units.
time (UTC)temp
F
wind
direction
speed
MPH
gust
MPH
rain 1hr
in
rain 24hr
in
rain mn
in
humidity
%
barometer
mb
20191020165517 59 247 1.0 8.0 0.00 0.00 0.00 86 1023.1
20191020165017 59 315 1.0 6.0 0.00 0.00 0.00 87 1023.1
20191020164518 59 315 1.0 6.0 0.00 0.00 0.00 88 1023.1
20191020164017 59 0.0 2.0 0.00 0.00 0.00 89 1023.0
20191020163517 58 0.0 4.0 0.00 0.00 0.00 90 1023.0
20191020163017 58 0.0 2.0 0.00 0.00 0.00 90 1023.0
20191020162517 58 0.0 4.0 0.00 0.00 0.00 91 1022.7
20191020162017 58 0.0 2.0 0.00 0.00 0.00 92 1022.7
20191020161517 57 0.0 2.0 0.00 0.00 0.00 93 1022.7
20191020161017 57 0.0 0.0 0.00 0.00 0.00 92 1022.5
20191020160517 57 0.0 1.0 0.00 0.00 0.00 93 1022.5
20191020160017 56 0.0 0.0 0.00 0.00 0.00 92 1022.5
20191020155517 56 0.0 0.0 0.00 0.00 0.00 92 1022.4
20191020155017 56 0.0 0.0 0.00 0.00 0.00 93 1022.4
20191020154517 56 0.0 2.0 0.00 0.00 0.00 93 1022.4
20191020154017 56 0.0 4.0 0.00 0.00 0.00 92 1022.3
20191020153517 56 0.0 0.0 0.00 0.00 0.00 92 1022.3
20191020153017 56 0.0 0.0 0.00 0.00 0.00 92 1022.3
20191020152517 55 0.0 0.0 0.00 0.00 0.00 93 1022.0
20191020152017 55 0.0 0.0 0.00 0.00 0.00 92 1022.0
20191020151517 55 0.0 0.0 0.00 0.00 0.00 92 1022.0
20191020151017 55 0.0 0.0 0.00 0.00 0.00 92 1022.0
20191020150517 55 0.0 0.0 0.00 0.00 0.00 92 1022.0
20191020150017 55 0.0 0.0 0.00 0.00 0.00 92 1022.0
20191020145517 55 0.0 0.0 0.00 0.00 0.00 92 1022.0
20191020145017 55 0.0 0.0 0.00 0.00 0.00 92 1022.0
20191020144517 55 0.0 0.0 0.00 0.00 0.00 92 1022.0
20191020144017 55 0.0 0.0 0.00 0.00 0.00 92 1021.9
20191020143517 55 0.0 0.0 0.00 0.00 0.00 92 1021.9
20191020143017 55 0.0 0.0 0.00 0.00 0.00 92 1021.9
20191020142517 55 0.0 0.0 0.00 0.00 0.00 92 1021.7
20191020142017 55 0.0 0.0 0.00 0.00 0.00 92 1021.7
20191020141517 55 0.0 0.0 0.00 0.00 0.00 92 1021.7
20191020141017 55 0.0 0.0 0.00 0.00 0.00 92 1021.4
20191020140517 55 0.0 0.0 0.00 0.00 0.00 92 1021.4
20191020140016 55 0.0 0.0 0.00 0.00 0.00 92 1021.4
20191020135516 55 0.0 0.0 0.00 0.00 0.00 92 1021.4
20191020135017 55 0.0 0.0 0.00 0.00 0.00 92 1021.4
20191020134517 55 0.0 0.0 0.00 0.00 0.00 92 1021.4
20191020134016 55 0.0 0.0 0.00 0.00 0.00 92 1021.4
20191020133516 55 0.0 0.0 0.00 0.00 0.00 92 1021.4
20191020133017 55 0.0 0.0 0.00 0.00 0.00 92 1021.4
20191020132516 55 0.0 0.0 0.00 0.00 0.00 92 1021.4
20191020132017 55 0.0 0.0 0.00 0.00 0.00 92 1021.4
20191020131517 54 0.0 0.0 0.00 0.00 0.00 92 1021.4
20191020131016 54 0.0 0.0 0.00 0.00 0.00 92 1021.4
20191020130516 54 0.0 0.0 0.00 0.00 0.00 92 1021.4
20191020130017 54 0.0 0.0 0.00 0.00 0.00 92 1021.4
20191020125516 54 0.0 0.0 0.00 0.00 0.00 92 1021.2
20191020125016 54 0.0 0.0 0.00 0.00 0.00 92 1021.2
20191020124517 54 0.0 0.0 0.00 0.00 0.00 92 1021.2
20191020124016 53 0.0 0.0 0.00 0.00 0.00 92 1021.0
20191020123516 53 0.0 0.0 0.00 0.00 0.00 92 1021.0
20191020123016 53 0.0 0.0 0.00 0.00 0.00 92 1021.0
20191020122516 52 0.0 0.0 0.00 0.00 0.00 92 1020.9
20191020122016 52 0.0 0.0 0.00 0.00 0.00 92 1020.9
20191020121517 52 0.0 0.0 0.00 0.00 0.00 92 1020.9
20191020121016 52 0.0 0.0 0.00 0.00 0.00 92 1021.1
20191020120516 52 0.0 0.0 0.00 0.00 0.00 92 1021.1
20191020120016 52 0.0 0.0 0.00 0.00 0.00 92 1021.1
20191020115516 51 0.0 0.0 0.00 0.00 0.00 91 1021.3
20191020115016 51 0.0 0.0 0.00 0.00 0.00 92 1021.3
20191020114516 51 0.0 0.0 0.00 0.00 0.00 92 1021.3
20191020114016 51 0.0 0.0 0.00 0.00 0.00 91 1021.1
20191020113516 51 0.0 0.0 0.00 0.00 0.00 91 1021.1
20191020113016 50 0.0 0.0 0.00 0.00 0.00 91 1021.1
20191020112516 50 0.0 0.0 0.00 0.00 0.00 91 1021.1
20191020112016 50 0.0 0.0 0.00 0.00 0.00 90 1021.1
20191020111516 50 0.0 0.0 0.00 0.00 0.00 90 1021.1
20191020111016 50 0.0 0.0 0.00 0.00 0.00 90 1021.0
20191020110516 50 0.0 0.0 0.00 0.00 0.00 90 1021.0
20191020110016 50 0.0 0.0 0.00 0.00 0.00 90 1021.0
20191020105518 51 0.0 0.0 0.00 0.00 0.00 90 1021.0
20191020105017 51 0.0 0.0 0.00 0.00 0.00 90 1021.0
20191020104517 51 0.0 0.0 0.00 0.00 0.00 90 1021.0
20191020104016 51 0.0 0.0 0.00 0.00 0.00 90 1020.9
20191020103516 51 0.0 0.0 0.00 0.00 0.00 90 1020.9
20191020103016 51 0.0 0.0 0.00 0.00 0.00 90 1020.9
20191020102516 51 0.0 0.0 0.00 0.00 0.00 90 1021.1
20191020102016 51 0.0 0.0 0.00 0.00 0.00 90 1021.1
20191020101516 51 0.0 0.0 0.00 0.00 0.00 90 1021.1
20191020101016 51 0.0 0.0 0.00 0.00 0.00 90 1021.2
20191020100516 52 0.0 0.0 0.00 0.00 0.00 90 1021.2
20191020100016 52 0.0 0.0 0.00 0.00 0.00 90 1021.2
20191020095516 52 0.0 0.0 0.00 0.00 0.00 90 1021.2
20191020095016 52 0.0 0.0 0.00 0.00 0.00 90 1021.2
20191020094517 52 0.0 0.0 0.00 0.00 0.00 90 1021.2
20191020094016 52 0.0 0.0 0.00 0.00 0.00 90 1021.2
20191020093516 52 0.0 0.0 0.00 0.00 0.00 90 1021.2
20191020093016 52 0.0 0.0 0.00 0.00 0.00 90 1021.2
20191020092516 52 0.0 0.0 0.00 0.00 0.00 90 1020.9
20191020092016 53 0.0 0.0 0.00 0.00 0.00 90 1020.9
20191020091516 53 0.0 0.0 0.00 0.00 0.00 90 1020.9
20191020091016 53 0.0 0.0 0.00 0.00 0.00 90 1020.7
20191020090516 53 0.0 0.0 0.00 0.00 0.00 90 1020.7
20191020090016 53 0.0 0.0 0.00 0.00 0.00 90 1020.7
20191020085516 53 0.0 0.0 0.00 0.00 0.00 90 1020.7
20191020085016 53 0.0 0.0 0.00 0.00 0.00 90 1020.7
20191020084516 53 0.0 0.0 0.00 0.00 0.00 90 1020.7
20191020084017 53 0.0 0.0 0.00 0.00 0.00 90 1020.8
20191020083516 53 0.0 0.0 0.00 0.00 0.00 90 1020.8
20191020083016 53 0.0 0.0 0.00 0.00 0.00 90 1020.8
20191020082516 54 0.0 0.0 0.00 0.00 0.00 90 1020.9
20191020082016 54 0.0 0.0 0.00 0.00 0.00 90 1020.9
20191020081515 54 0.0 0.0 0.00 0.00 0.00 90 1020.9
20191020081016 54 0.0 0.0 0.00 0.00 0.00 90 1020.9
20191020080516 54 0.0 0.0 0.00 0.00 0.00 90 1020.9
20191020080016 54 0.0 0.0 0.00 0.00 0.00 90 1020.9
20191020075515 54 0.0 0.0 0.00 0.00 0.00 89 1020.8
20191020075016 54 0.0 0.0 0.00 0.00 0.00 89 1020.8
20191020074515 54 0.0 0.0 0.00 0.00 0.00 90 1020.8
20191020074016 54 0.0 0.0 0.00 0.00 0.00 89 1020.9
20191020073515 54 0.0 0.0 0.00 0.00 0.00 89 1020.9
20191020073016 54 0.0 0.0 0.00 0.00 0.00 89 1020.9
20191020072515 54 0.0 0.0 0.00 0.00 0.00 89 1020.9
20191020072015 54 0.0 0.0 0.00 0.00 0.00 89 1020.9
20191020071516 54 0.0 0.0 0.00 0.00 0.00 89 1020.9
20191020071015 54 0.0 0.0 0.00 0.00 0.00 89 1020.9
20191020070516 55 0.0 0.0 0.00 0.00 0.00 89 1020.9
20191020070015 55 0.0 0.0 0.00 0.00 0.00 89 1020.9
20191020065517 55 0.0 0.0 0.00 0.00 0.00 89 1021.0
20191020065017 55 0.0 0.0 0.00 0.00 0.00 89 1021.0
20191020064516 55 0.0 0.0 0.00 0.00 0.00 89 1021.0
20191020064017 55 0.0 0.0 0.00 0.00 0.00 89 1021.0
20191020063516 55 0.0 0.0 0.00 0.00 0.00 88 1021.0
20191020063016 55 0.0 0.0 0.00 0.00 0.00 88 1021.0
20191020062516 55 0.0 0.0 0.00 0.00 0.00 88 1021.0
20191020062017 55 0.0 0.0 0.00 0.00 0.00 88 1021.0
20191020061516 55 0.0 0.0 0.00 0.00 0.00 88 1021.0
20191020061017 55 0.0 0.0 0.00 0.00 0.00 88 1021.0
20191020060516 55 0.0 0.0 0.00 0.00 0.00 87 1021.0
20191020060018 55 0.0 0.0 0.00 0.00 0.00 87 1021.0
20191020055517 55 0.0 0.0 0.00 0.00 0.00 87 1020.8
20191020055016 56 0.0 0.0 0.00 0.00 0.00 87 1020.8
20191020054517 56 0.0 0.0 0.00 0.00 0.00 87 1020.8
20191020054016 56 0.0 0.0 0.00 0.00 0.00 87 1020.9
20191020053516 56 0.0 0.0 0.00 0.00 0.00 87 1020.9
20191020053016 56 0.0 0.0 0.00 0.00 0.00 87 1020.9
20191020052516 56 0.0 0.0 0.00 0.00 0.00 87 1020.6
20191020052017 56 0.0 0.0 0.00 0.00 0.00 87 1020.6
20191020051516 56 0.0 0.0 0.00 0.00 0.00 86 1020.6
20191020051016 57 0.0 0.0 0.00 0.00 0.00 86 1020.6
20191020050516 57 0.0 0.0 0.00 0.00 0.00 86 1020.6
20191020050016 57 0.0 0.0 0.00 0.00 0.00 86 1020.6
20191020045517 57 0.0 0.0 0.00 0.00 0.00 86 1020.6
20191020045016 57 0.0 0.0 0.00 0.00 0.00 86 1020.6
20191020044516 57 0.0 0.0 0.00 0.00 0.00 86 1020.6
20191020044016 58 0.0 0.0 0.00 0.00 0.00 86 1020.4
20191020043516 58 0.0 6.0 0.00 0.00 0.00 86 1020.4
20191020043016 58 0.0 0.0 0.00 0.00 0.00 86 1020.4
20191020042516 58 0.0 0.0 0.00 0.00 0.00 86 1020.4
20191020042016 58 0.0 1.0 0.00 0.00 0.00 86 1020.4
20191020041516 58 0.0 1.0 0.00 0.00 0.00 86 1020.4
20191020041016 58 270 1.0 6.0 0.00 0.00 0.00 86 1020.4
20191020040516 58 0.0 3.0 0.00 0.00 0.00 85 1020.4
20191020040016 58 0.0 0.0 0.00 0.00 0.00 86 1020.4
20191020035516 59 0.0 2.0 0.00 0.00 0.00 85 1020.4
20191020035016 59 0.0 6.0 0.00 0.00 0.00 86 1020.4
20191020034518 59 0.0 5.0 0.00 0.00 0.00 86 1020.4
20191020034016 59 0.0 6.0 0.00 0.00 0.00 86 1020.3
20191020033516 59 0.0 4.0 0.00 0.00 0.00 86 1020.3
20191020033016 59 0.0 1.0 0.00 0.00 0.00 85 1020.3
20191020032516 59 0.0 5.0 0.00 0.00 0.00 85 1020.1
20191020032016 59 0.0 3.0 0.00 0.00 0.00 85 1020.1
20191020031516 59 0.0 1.0 0.00 0.00 0.00 85 1020.1
20191020031016 59 225 1.0 9.0 0.00 0.00 0.00 84 1020.0
20191020030516 60 0.0 3.0 0.00 0.00 0.00 84 1020.0
20191020030016 60 0.0 2.0 0.00 0.00 0.00 84 1020.0
20191020025516 60 22 1.0 7.0 0.00 0.00 0.00 84 1020.0
20191020025016 60 0.0 4.0 0.00 0.00 0.00 83 1020.0
20191020024516 61 0.0 5.0 0.00 0.00 0.00 83 1020.0
20191020024016 61 0.0 3.0 0.00 0.00 0.00 83 1019.5
20191020023516 61 0.0 4.0 0.00 0.00 0.00 83 1019.5
20191020023016 61 0.0 8.0 0.00 0.00 0.00 82 1019.5
20191020022516 62 0.0 4.0 0.00 0.00 0.00 82 1019.4
20191020022016 62 270 1.0 4.0 0.00 0.00 0.00 81 1019.4
20191020021516 63 0.0 8.0 0.00 0.00 0.00 81 1019.4
20191020021016 63 270 1.0 11.0 0.00 0.00 0.00 80 1019.3
20191020020516 64 0.0 3.0 0.00 0.00 0.00 80 1019.3
20191020020016 64 247 1.0 7.0 0.00 0.00 0.00 79 1019.3
20191020015515 64 0.0 5.0 0.00 0.00 0.00 79 1019.4
20191020015016 65 0 1.0 6.0 0.00 0.00 0.00 78 1019.4
20191020014515 65 0.0 4.0 0.00 0.00 0.00 77 1019.4
20191020014016 66 0.0 2.0 0.00 0.00 0.00 77 1019.5
20191020013516 66 0.0 5.0 0.00 0.00 0.00 76 1019.5
20191020013015 66 0.0 3.0 0.00 0.00 0.00 75 1019.5
20191020012516 67 0.0 4.0 0.00 0.00 0.00 75 1019.7
20191020012015 67 0.0 4.0 0.00 0.00 0.00 74 1019.7
20191020011515 67 0.0 0.0 0.00 0.00 0.00 73 1019.7
20191020011015 67 0.0 4.0 0.00 0.00 0.00 72 1019.4
20191020010516 68 0.0 2.0 0.00 0.00 0.00 72 1019.4
20191020010016 68 0.0 5.0 0.00 0.00 0.00 71 1019.4
20191020005515 68 0.0 4.0 0.00 0.00 0.00 72 1019.4
20191020005016 68 0.0 2.0 0.00 0.00 0.00 71 1019.4
20191020004516 68 0.0 0.0 0.00 0.00 0.00 71 1019.4
20191020004015 68 0.0 5.0 0.00 0.00 0.00 71 1019.4
20191020003515 69 0 1.0 9.0 0.00 0.00 0.00 70 1019.4
20191020003015 69 0 1.0 8.0 0.00 0.00 0.00 69 1019.4
20191020002515 69 0 1.0 6.0 0.00 0.00 0.00 68 1019.5
20191020002016 69 0 2.0 9.0 0.00 0.00 0.00 68 1019.5
20191020001515 69 0.0 4.0 0.00 0.00 0.00 68 1019.5
20191020001016 69 0 1.0 8.0 0.00 0.00 0.00 68 1019.5
20191020000515 70 0 1.0 8.0 0.00 0.00 0.00 67 1019.5
20191020000016 70 0.0 0.0 0.00 0.00 0.00 67 1019.5
20191019235516 70 0.0 3.0 0.00 0.00 0.00 66 1019.7
20191019235017 70 0 2.0 8.0 0.00 0.00 0.00 65 1019.7
20191019234517 71 0 2.0 16.0 0.00 0.00 0.00 64 1019.7
20191019234017 71 0 1.0 7.0 0.00 0.00 0.00 63 1019.7
20191019233517 72 0 1.0 10.0 0.00 0.00 0.00 62 1019.7
20191019233016 72 0 1.0 6.0 0.00 0.00 0.00 61 1019.7
20191019232516 73 0.0 4.0 0.00 0.00 0.00 60 1019.9
20191019232016 73 0 1.0 6.0 0.00 0.00 0.00 60 1019.9
20191019231516 73 0 2.0 10.0 0.00 0.00 0.00 60 1019.9
20191019231017 73 0 1.0 8.0 0.00 0.00 0.00 59 1019.9
20191019230516 73 0 1.0 6.0 0.00 0.00 0.00 59 1019.9
20191019230016 72 0 1.0 5.0 0.00 0.00 0.00 60 1019.9
20191019225516 71 0.0 1.0 0.00 0.00 0.00 63 1019.9
20191019225016 71 270 2.0 11.0 0.00 0.00 0.00 62 1019.9
20191019224516 71 22 1.0 6.0 0.00 0.00 0.00 62 1019.9
20191019224016 71 270 1.0 5.0 0.00 0.00 0.00 61 1019.8
20191019223516 71 0.0 4.0 0.00 0.00 0.00 62 1019.8
20191019223016 71 225 1.0 8.0 0.00 0.00 0.00 62 1019.8
20191019222516 71 225 1.0 9.0 0.00 0.00 0.00 61 1019.9
20191019222016 71 0.0 2.0 0.00 0.00 0.00 61 1019.9
20191019221516 71 0.0 4.0 0.00 0.00 0.00 61 1019.9
20191019221016 71 315 1.0 6.0 0.00 0.00 0.00 60 1019.9
20191019220516 72 0.0 6.0 0.00 0.00 0.00 60 1019.9
20191019220016 72 315 1.0 6.0 0.00 0.00 0.00 59 1019.9
20191019215516 72 0.0 4.0 0.00 0.00 0.00 59 1020.0
20191019215016 72 22 1.0 9.0 0.00 0.00 0.00 59 1020.0
20191019214516 72 292 1.0 7.0 0.00 0.00 0.00 59 1020.0
20191019214016 72 0 1.0 4.0 0.00 0.00 0.00 59 1020.0
20191019213516 72 0.0 4.0 0.00 0.00 0.00 60 1020.0
20191019213016 72 0.0 2.0 0.00 0.00 0.00 59 1020.0
20191019212516 72 0.0 14.0 0.00 0.00 0.00 60 1020.3
20191019212016 72 247 2.0 14.0 0.00 0.00 0.00 59 1020.3
20191019211516 72 225 1.0 8.0 0.00 0.00 0.00 60 1020.3
20191019211016 71 247 2.0 10.0 0.00 0.00 0.00 60 1020.6
20191019210516 71 45 1.0 8.0 0.00 0.00 0.00 59 1020.6
20191019210016 71 45 1.0 7.0 0.00 0.00 0.00 59 1020.6
20191019205516 71 247 2.0 12.0 0.00 0.00 0.00 59 1020.5
20191019205016 71 0.0 5.0 0.00 0.00 0.00 60 1020.5
20191019204516 71 0 1.0 7.0 0.00 0.00 0.00 60 1020.5
20191019204016 71 0 1.0 6.0 0.00 0.00 0.00 60 1020.8
20191019203516 71 0 1.0 6.0 0.00 0.00 0.00 60 1020.8
20191019203017 70 0 1.0 6.0 0.00 0.00 0.00 61 1020.8
20191019202516 70 0.0 6.0 0.00 0.00 0.00 61 1020.9
20191019202016 70 315 1.0 6.0 0.00 0.00 0.00 62 1020.9
20191019201516 70 270 1.0 6.0 0.00 0.00 0.00 62 1020.9
20191019201016 70 315 1.0 8.0 0.00 0.00 0.00 63 1021.1
20191019200516 69 315 1.0 8.0 0.00 0.00 0.00 63 1021.1
20191019200016 69 247 1.0 6.0 0.00 0.00 0.00 63 1021.1
20191019195516 69 337 1.0 7.0 0.00 0.00 0.00 63 1021.4
20191019195016 69 225 1.0 8.0 0.00 0.00 0.00 63 1021.4
20191019194516 68 22 1.0 7.0 0.00 0.00 0.00 64 1021.4
20191019194016 68 22 1.0 9.0 0.00 0.00 0.00 63 1021.5
20191019193516 68 22 3.0 9.0 0.00 0.00 0.00 63 1021.5
20191019193016 68 22 2.0 10.0 0.00 0.00 0.00 63 1021.5
20191019192516 68 337 2.0 10.0 0.00 0.00 0.00 64 1021.9
20191019192016 68 337 2.0 13.0 0.00 0.00 0.00 64 1021.9
20191019191515 68 0.0 4.0 0.00 0.00 0.00 63 1021.9
20191019191016 68 22 1.0 8.0 0.00 0.00 0.00 63 1021.9
20191019190516 67 0.0 7.0 0.00 0.00 0.00 63 1021.9
20191019190016 67 45 1.0 7.0 0.00 0.00 0.00 62 1021.9
20191019185516 67 0.0 0.0 0.00 0.00 0.00 62 1022.2
20191019185015 66 0.0 0.0 0.00 0.00 0.00 61 1022.2
20191019184516 66 0.0 0.0 0.00 0.00 0.00 61 1022.2
20191019184016 65 0.0 0.0 0.00 0.00 0.00 61 1022.4
20191019183515 65 0.0 0.0 0.00 0.00 0.00 61 1022.4
20191019183015 65 0.0 0.0 0.00 0.00 0.00 62 1022.4
20191019182515 64 0.0 0.0 0.00 0.00 0.00 62 1022.5
20191019182015 64 0.0 0.0 0.00 0.00 0.00 63 1022.5
20191019181516 64 0.0 0.0 0.00 0.00 0.00 63 1022.5
20191019181016 63 0.0 0.0 0.00 0.00 0.00 64 1022.5
20191019180515 63 0.0 0.0 0.00 0.00 0.00 63 1022.5
20191019180016 62 0.0 0.0 0.00 0.00 0.00 63 1022.5
20191019175516 62 0.0 0.0 0.00 0.00 0.00 63 1022.4
20191019175016 62 0.0 0.0 0.00 0.00 0.00 63 1022.4
20191019174516 62 0.0 0.0 0.00 0.00 0.00 63 1022.4
20191019174015 62 0.0 0.0 0.00 0.00 0.00 63 1022.2
20191019173515 62 0.0 0.0 0.00 0.00 0.00 64 1022.2
20191019173015 61 0.0 0.0 0.00 0.00 0.00 64 1022.2
20191019172516 61 0.0 0.0 0.00 0.00 0.00 64 1022.1
20191019172015 61 0.0 0.0 0.00 0.00 0.00 64 1022.1
20191019171515 61 0.0 0.0 0.00 0.00 0.00 65 1022.1
20191019171016 61 0.0 0.0 0.00 0.00 0.00 65 1022.1
20191019170516 60 0.0 0.0 0.00 0.00 0.00 65 1022.1
20191019170016 60 0.0 0.0 0.00 0.00 0.00 67 1022.1